This demonstration page uses our WeatherBlox Daily Observations layout. Learn more.

Left ArrowRight Arrow

41.86663, -103.66717

Hourly Observations for March 6, 2021

Temp ( °F °C ) Dew Point ( °F °C ) Humidity (%) Winds ( mph kmh ) Pressure ( in mb ) Visibility ( mi km ) Precip ( " mm )
12:53 am 00:53 Clear 31 -0.6 20 -6.7 64 64 Calm 30.15 1021 10 16.0934 0 0
1:53 am 01:53 Clear 28 -2.2 20 -6.7 72 72 N 7 11 30.14 1021 10 16.0934 0 0
2:53 am 02:53 Clear 25 -3.9 19 -7.2 78 78 WNW 6 9 30.11 1020 10 16.0934 0 0
3:53 am 03:53 Clear 24 -4.4 17 -8.3 75 75 Calm 30.12 1020 10 16.0934 0 0
4:53 am 04:53 Clear 26 -3.3 19 -7.2 75 75 NW 5 7 30.11 1020 10 16.0934 0 0
5:53 am 05:53 Clear 24 -4.4 17 -8.3 75 75 N 5 7 30.14 1021 10 16.0934 0 0
6:53 am 06:53 Sunny 26 -3.3 19 -7.2 75 75 Calm 30.16 1021 10 16.0934 0 0
7:53 am 07:53 Sunny 34 1.1 22 -5.6 61 61 Calm 30.13 1020 10 16.0934 0 0
8:53 am 08:53 Sunny 40 4.4 23 -5 51 51 ESE 6 9 30.1 1019 10 16.0934 0 0
9:53 am 09:53 Sunny 47 8.3 24 -4.4 41 41 ESE 8 13 30.05 1018 10 16.0934 0 0
10:53 am 10:53 Sunny 56 13.3 24 -4.4 29 29 ESE 8 13 30 1016 10 16.0934 0 0
11:53 am 11:53 Sunny 64 17.8 23 -5 21 21 SE 9 15 29.96 1015 10 16.0934 0 0
12:53 pm 12:53 Sunny 70 21.1 12 -11.1 10 10 S 13 20 29.88 1012 10 16.0934 0 0
1:53 pm 13:53 Sunny 71 21.7 8 -13.3 8 8 S 18 30 29.85 1011 10 16.0934 0 0
2:53 pm 14:53 Sunny 71 21.7 12 -11.1 10 10 S 14 22 29.84 1011 10 16.0934 0 0
3:53 pm 15:53 Sunny 69 20.6 13 -10.6 11 11 S 17 28 29.83 1010 10 16.0934 0 0
4:53 pm 16:53 Sunny 68 20 11 -11.7 11 11 S 15 24 29.82 1010 10 16.0934 0 0
5:53 pm 17:53 Clear 61 16.1 13 -10.6 15 15 S 8 13 29.83 1010 10 16.0934 0 0
6:53 pm 18:53 Clear 47 8.3 18 -7.8 31 31 ESE 7 11 29.86 1011 10 16.0934 0 0
7:53 pm 19:53 Clear 52 11.1 20 -6.7 28 28 S 7 11 29.83 1010 10 16.0934 0 0
8:53 pm 20:53 Clear 49 9.4 18 -7.8 29 29 Calm 29.83 1010 10 16.0934 0 0
9:53 pm 21:53 Clear 41 5 21 -6.1 45 45 VRB 5 7 29.85 1011 10 16.0934 0 0
10:53 pm 22:53 Clear 42 5.6 21 -6.1 43 43 Calm 29.84 1011 10 16.0934 0 0
11:53 pm 23:53 Clear 38 3.3 21 -6.1 51 51 Calm 29.84 1010 10 16.0934 0 0

Powered by AerisWeather